Change the Weather History Date:

Friday, December 30, 2011

  Actual Average (KESN) Record (KESN)
Temperature  
Mean Temperature 43 °F -  
Max Temperature 51 °F 45 °F 64 °F (1971)
Min Temperature 35 °F 30 °F 10 °F (1962)
Degree Days  
Heating Degree Days 22    
Moisture  
Dew Point 34 °F    
Average Humidity 68    
Maximum Humidity 87    
Minimum Humidity 50    
Precipitation  
Precipitation 0.00 in - - ()
Sea Level Pressure  
Sea Level Pressure 29.98 in    
Wind  
Wind Speed 5 mph (SSE)    
Max Wind Speed 13 mph    
Max Gust Speed 20 mph    
Visibility 10 miles    
Events      
Averages and records for this station are not official NWS values.
T = Trace of Precipitation, MM = Missing Value Source: NWS Daily Summary

Daily Weather History Graph

Daily Weather History Graph

Search for Another Location

Airport or City:

Trip Planner

Search our weather history database for the weather conditions in past years. The results will help you decide how hot, cold, wet, or windy it might be!

Date:

Astronomy

Dec. 30, 2011 Rise Set
Actual Time 7:23 AM EST 4:51 PM EST
Civil Twilight 6:53 AM EST 5:21 PM EST
Nautical Twilight 6:20 AM EST 5:55 PM EST
Astronomical Twilight 5:47 AM EST 6:27 PM EST
Moon 10:45 AM EST (12/30) 11:21 PM EST (12/30)
Length of Visible Light 10h 28m
Length of Day
9h 28m
Waxing Crescent, 35% of the Moon is Illuminated
Dec 30
Waxing Crescent
Jan 1
First Quarter
Jan 9
Full
Jan 16
Last Quarter
Jan 23
New

Hourly Weather History & Observations

Time (EST) Temp. Windchill Dew Point Humidity Pressure Visibility Wind Dir Wind Speed Gust Speed Precip Events Conditions
12:09 AM 39.2 °F 35.9 °F 35.6 °F 87% 29.97 in 10.0 mi South 4.6 mph - N/A   Mostly Cloudy
12:29 AM 39.2 °F 35.0 °F 33.8 °F 81% 29.97 in 10.0 mi South 5.8 mph - N/A   Scattered Clouds
12:48 AM 41.0 °F 38.0 °F 32.0 °F 70% 29.98 in 10.0 mi South 4.6 mph - N/A   Scattered Clouds
1:07 AM 41.0 °F 39.0 °F 32.0 °F 70% 29.98 in 10.0 mi South 3.5 mph - N/A   Scattered Clouds
1:27 AM 39.2 °F 37.0 °F 32.0 °F 75% 29.98 in 10.0 mi South 3.5 mph - N/A   Clear
1:46 AM 39.2 °F 35.9 °F 32.0 °F 75% 29.98 in 10.0 mi South 4.6 mph - N/A   Clear
2:05 AM 39.2 °F 35.9 °F 32.0 °F 75% 29.98 in 10.0 mi South 4.6 mph - N/A   Clear
2:25 AM 41.0 °F 37.1 °F 32.0 °F 70% 29.98 in 10.0 mi South 5.8 mph - N/A   Clear
2:44 AM 39.2 °F 37.0 °F 32.0 °F 75% 29.98 in 10.0 mi South 3.5 mph - N/A   Clear
3:03 AM 37.4 °F 34.9 °F 32.0 °F 81% 29.99 in 10.0 mi South 3.5 mph - N/A   Clear
3:23 AM 37.4 °F 34.9 °F 32.0 °F 81% 29.99 in 10.0 mi South 3.5 mph - N/A   Clear
3:42 AM 37.4 °F 34.9 °F 32.0 °F 81% 29.99 in 10.0 mi South 3.5 mph - N/A   Clear
4:01 AM 37.4 °F 33.8 °F 32.0 °F 81% 29.99 in 10.0 mi South 4.6 mph - N/A   Clear
4:20 AM 37.4 °F 34.9 °F 32.0 °F 81% 29.98 in 10.0 mi South 3.5 mph - N/A   Clear
4:40 AM 37.4 °F 33.8 °F 32.0 °F 81% 29.99 in 10.0 mi SSW 4.6 mph - N/A   Clear
4:59 AM 39.2 °F 35.9 °F 32.0 °F 75% 29.99 in 10.0 mi SW 4.6 mph - N/A   Clear
5:18 AM 41.0 °F 38.0 °F 32.0 °F 70% 29.99 in 10.0 mi SW 4.6 mph - N/A   Clear
5:38 AM 39.2 °F 37.0 °F 32.0 °F 75% 30.00 in 10.0 mi WSW 3.5 mph - N/A   Clear
5:57 AM 39.2 °F 37.0 °F 32.0 °F 75% 30.01 in 10.0 mi WSW 3.5 mph - N/A   Clear
6:55 AM 37.4 °F 34.9 °F 32.0 °F 81% 30.02 in 10.0 mi SW 3.5 mph - N/A   Clear
7:14 AM 37.4 °F - 30.2 °F 75% 30.02 in 10.0 mi Calm Calm - N/A   Clear
7:33 AM 35.6 °F - 30.2 °F 81% 30.02 in 10.0 mi Calm Calm - N/A   Clear
7:53 AM 35.6 °F - 30.2 °F 81% 30.03 in 10.0 mi Calm Calm - N/A   Clear
8:12 AM 35.6 °F 32.8 °F 32.0 °F 87% 30.03 in 10.0 mi SE 3.5 mph - N/A   Clear
8:31 AM 37.4 °F - 32.0 °F 81% 30.04 in 10.0 mi Calm Calm - N/A   Clear
8:51 AM 41.0 °F - 32.0 °F 70% 30.04 in 10.0 mi Calm Calm - N/A   Clear
9:10 AM 42.8 °F - 32.0 °F 66% 30.05 in 10.0 mi Calm Calm - N/A   Clear
9:29 AM 42.8 °F - 32.0 °F 66% 30.05 in 10.0 mi Calm Calm - N/A   Clear
10:08 AM 44.6 °F 40.2 °F 32.0 °F 61% 30.07 in 10.0 mi SSE 8.1 mph - N/A   Clear
10:27 AM 44.6 °F 41.4 °F 33.8 °F 66% 30.06 in 10.0 mi SSE 5.8 mph - N/A   Clear
10:46 AM 46.4 °F 42.9 °F 32.0 °F 57% 30.06 in 10.0 mi South 6.9 mph - N/A   Clear
11:05 AM 46.4 °F 42.4 °F 32.0 °F 57% 30.05 in 10.0 mi SSE 8.1 mph - N/A   Clear
11:25 AM 46.4 °F 42.4 °F 33.8 °F 62% 30.04 in 10.0 mi South 8.1 mph - N/A   Clear
11:44 AM 48.2 °F - 35.6 °F 62% 30.03 in 10.0 mi SSE 6.9 mph - N/A   Clear
12:03 PM 46.4 °F 42.9 °F 35.6 °F 66% 30.02 in 10.0 mi SSE 6.9 mph - N/A   Clear
12:42 PM 48.2 °F - 33.8 °F 58% 30.00 in 10.0 mi South 6.9 mph - N/A   Clear
1:01 PM 48.2 °F - 33.8 °F 58% 29.99 in 10.0 mi SSE 6.9 mph - N/A   Clear
1:20 PM 48.2 °F - 33.8 °F 58% 29.99 in 10.0 mi SSE 6.9 mph - N/A   Clear
1:40 PM 50.0 °F - 33.8 °F 54% 29.98 in 10.0 mi SSE 6.9 mph - N/A   Clear
1:59 PM 50.0 °F - 33.8 °F 54% 29.97 in 10.0 mi SSE 6.9 mph - N/A   Scattered Clouds
2:18 PM 48.2 °F - 33.8 °F 58% 29.97 in 10.0 mi SSE 5.8 mph - N/A   Scattered Clouds
2:37 PM 50.0 °F - 33.8 °F 54% 29.97 in 10.0 mi SE 3.5 mph - N/A   Clear
2:57 PM 51.8 °F - 33.8 °F 50% 29.98 in 10.0 mi SSE 5.8 mph - N/A   Clear
3:16 PM 51.8 °F - 33.8 °F 50% 29.97 in 10.0 mi SSE 6.9 mph - N/A   Clear
3:55 PM 50.0 °F - 33.8 °F 54% 29.97 in 10.0 mi SE 4.6 mph - N/A   Clear
4:14 PM 48.2 °F - 33.8 °F 58% 29.96 in 10.0 mi SE 5.8 mph - N/A   Clear
4:33 PM 48.2 °F - 33.8 °F 58% 29.96 in 10.0 mi SE 6.9 mph - N/A   Clear
4:52 PM 46.4 °F 43.5 °F 33.8 °F 62% 29.95 in 10.0 mi SE 5.8 mph - N/A   Clear
5:12 PM 46.4 °F 43.5 °F 32.0 °F 57% 29.94 in 10.0 mi SE 5.8 mph - N/A   Clear
5:31 PM 46.4 °F 42.9 °F 32.0 °F 57% 29.95 in 10.0 mi SSE 6.9 mph - N/A   Clear
5:50 PM 44.6 °F 39.7 °F 33.8 °F 66% 29.95 in 10.0 mi SSE 9.2 mph - N/A   Clear
6:09 PM 46.4 °F 41.9 °F 33.8 °F 62% 29.95 in 10.0 mi SSE 9.2 mph - N/A   Clear
6:29 PM 44.6 °F 40.7 °F 33.8 °F 66% 29.95 in 10.0 mi SSE 6.9 mph - N/A   Clear
6:48 PM 44.6 °F 40.2 °F 35.6 °F 71% 29.95 in 10.0 mi SSE 8.1 mph - N/A   Clear
7:07 PM 44.6 °F 39.2 °F 35.6 °F 71% 29.95 in 10.0 mi SSE 10.4 mph - N/A   Clear
7:27 PM 44.6 °F 40.2 °F 35.6 °F 71% 29.95 in 10.0 mi SSE 8.1 mph - N/A   Clear
7:46 PM 44.6 °F 40.7 °F 37.4 °F 76% 29.95 in 10.0 mi SSE 6.9 mph - N/A   Clear
8:05 PM 44.6 °F 40.7 °F 37.4 °F 76% 29.95 in 10.0 mi SE 6.9 mph - N/A   Clear
8:24 PM 44.6 °F 40.2 °F 37.4 °F 76% 29.95 in 10.0 mi SSE 8.1 mph - N/A   Clear
8:44 PM 46.4 °F 41.9 °F 39.2 °F 76% 29.94 in 10.0 mi SSE 9.2 mph - N/A   Clear
9:03 PM 46.4 °F 41.5 °F 39.2 °F 76% 29.93 in 10.0 mi SSE 10.4 mph - N/A   Clear
9:22 PM 46.4 °F 41.9 °F 39.2 °F 76% 29.94 in 10.0 mi SSE 9.2 mph - N/A   Clear
10:59 PM 50.0 °F - 39.2 °F 66% 29.92 in 10.0 mi South 12.7 mph 19.6 mph N/A   Overcast
11:18 PM 51.8 °F - 37.4 °F 58% 29.91 in 10.0 mi South 11.5 mph - N/A   Overcast
11:38 PM 51.8 °F - 37.4 °F 58% 29.90 in 10.0 mi South 11.5 mph 18.4 mph N/A   Mostly Cloudy
11:57 PM 51.8 °F - 37.4 °F 58% 29.89 in 10.0 mi South 12.7 mph 18.4 mph N/A   Mostly Cloudy